Home   Weather   McAllen   Past weeks

Flag for USA Past Weather in McAllen, Texas, USA — Yesterday and Last 2 Weeks

75 °F


Feels Like: 76 °F
Forecast: 68 / 89 °F
Wind: No wind

Location: Miller International Airport

Current Time: Oct 26, 2016 at 2:35:49 AM

Latest Report: Oct 26, 2016 at 1:53 AM

Visibility: 10 mi

Pressure: 30.07 "Hg

Humidity: 79%

Dew Point: 68 °F

Location of McAllenLocation

Past Weather in McAllen — Graph


McAllen Temperature Yesterday

Maximum temperature yesterday: 90 °F (at 1:53 PM)
Minimum temperature yesterday: 69 °F (at 7:53 AM)
Average temperature yesterday: 79 °F

High & Low Weather Summary for the Past Weeks

High100 °F (Oct 19, 2:53 PM)91% (Oct 12, 4:53 AM)30.22 "Hg (Oct 12, 4:53 AM)
Low58 °F (Oct 22, 6:53 AM)27% (Oct 11, 1:53 PM)29.75 "Hg (Oct 17, 4:53 PM)
Average82 °F62%30.01 "Hg
* Reported Oct 11 12:53 AM — Oct 26 12:53 AM, McAllen, Weather by CustomWeather, © 2016

Note: Actual official high and low records may vary slightly from our data, if they occured in-between our weather recording intervals... More about our weather records


McAllen Weather History for the Previous 24 Hours

Scroll right to see more
Time TempWeatherWind HumidityBarometerVisibility
12:53 AM
Wed, Oct 26
73 °FPassing clouds.3 mph81%30.09 "Hg10 mi
11:53 PM
Tue, Oct 25
75 °FClear.No wind79%30.09 "Hg10 mi
10:53 PM76 °FClear.3 mph77%30.10 "Hg10 mi
9:53 PM77 °FPassing clouds.6 mph74%30.09 "Hg10 mi
8:53 PM78 °FPassing clouds.7 mph71%30.08 "Hg10 mi
7:53 PM80 °FPassing clouds.10 mph64%30.07 "Hg10 mi
6:53 PM83 °FOvercast.7 mph57%30.06 "Hg10 mi
5:53 PM82 °FOvercast.8 mph60%30.04 "Hg10 mi
4:53 PM84 °FOvercast.14 mph57%30.04 "Hg10 mi
3:53 PM82 °FMore clouds than sun.13 mph63%30.05 "Hg10 mi
2:53 PM89 °FPartly sunny.8 mph46%30.05 "Hg10 mi
1:53 PM90 °FPassing clouds.13 mph47%30.07 "Hg10 mi
12:53 PM87 °FBroken clouds.5 mph50%30.11 "Hg10 mi
11:53 AM87 °FPartly sunny.6 mph50%30.14 "Hg10 mi
10:53 AM85 °FSunny.6 mph57%30.15 "Hg10 mi
9:53 AM81 °FPassing clouds.3 mph65%30.16 "Hg10 mi
8:53 AM75 °FSunny.3 mph76%30.14 "Hg10 mi
7:53 AM69 °FSunny.No wind87%30.12 "Hg10 mi
6:53 AM71 °FClear.No wind84%30.12 "Hg10 mi
5:53 AM74 °FClear.6 mph76%30.11 "Hg10 mi
4:53 AM75 °FClear.7 mph74%30.11 "Hg10 mi
3:53 AM73 °FClear.3 mph79%30.11 "Hg10 mi
2:53 AM73 °FClear.5 mph79%30.13 "Hg10 mi
Weather by CustomWeather, © 2016

See weather overviewHow to use our weather pages